Weather History for KDMW - October, 2012

Change the Weather History Date:

Friday, October 26, 2012

  Actual Average (KTHV) Record (KTHV)
Temperature  
Mean Temperature 64 °F -  
Max Temperature 68 °F 0 °F 73 °F (2010)
Min Temperature 59 °F - 32 °F (2006)
Degree Days  
Heating Degree Days 2    
Growing Degree Days 14 (Base 50)    
Moisture  
Dew Point 57 °F    
Average Humidity 80    
Maximum Humidity 88    
Minimum Humidity 68    
Precipitation  
Precipitation 0.00 in - - ()
Sea Level Pressure  
Sea Level Pressure 30.16 in    
Wind  
Wind Speed 3 mph (ESE)    
Max Wind Speed 7 mph    
Max Gust Speed -    
Visibility 8 miles    
Events Rain    
Averages and records for this station are not official NWS values.
T = Trace of Precipitation, MM = Missing Value Source: NWS Daily Summary

Daily Weather History Graph

Daily Weather History Graph

Search for Another Location

Airport or City:

Trip Planner

Search our weather history database for the weather conditions in past years. The results will help you decide how hot, cold, wet, or windy it might be!

Date:

Astronomy

Oct. 26, 2012 Rise Set
Actual Time 7:30 AM EDT 6:12 PM EDT
Civil Twilight 7:02 AM EDT 6:40 PM EDT
Nautical Twilight 6:31 AM EDT 7:12 PM EDT
Astronomical Twilight 5:59 AM EDT 7:43 PM EDT
Moon 4:27 PM EDT (10/26) 4:25 AM EDT (10/26)
Length of Visible Light 11h 37m
Length of Day
10h 42m
Waxing Gibbous, 91% of the Moon is Illuminated
Oct 26
Waxing Gibbous
Oct 29
Full
Nov 6
Last Quarter
Nov 13
New
Nov 20
First Quarter

Hourly Weather History & Observations

Time (EDT) Temp. Dew Point Humidity Pressure Visibility Wind Dir Wind Speed Gust Speed Precip Events Conditions
12:37 AM 60.8 °F 55.4 °F 82% 30.20 in 4.0 mi SSE 4.6 mph - N/A   Overcast
12:58 AM 60.8 °F 55.4 °F 82% 30.20 in 4.0 mi SE 4.6 mph - N/A   Overcast
1:19 AM 60.8 °F 55.4 °F 82% 30.20 in 4.0 mi SSE 3.5 mph - N/A   Overcast
1:40 AM 60.8 °F 55.4 °F 82% 30.20 in 5.0 mi SE 4.6 mph - N/A   Overcast
2:22 AM 60.8 °F 55.4 °F 82% 30.20 in 5.0 mi SSE 3.5 mph - N/A   Overcast
2:43 AM 60.8 °F 55.4 °F 82% 30.20 in 5.0 mi Calm Calm - N/A   Overcast
3:04 AM 60.8 °F 55.4 °F 82% 30.19 in 5.0 mi SE 3.5 mph - N/A   Overcast
3:25 AM 60.8 °F 55.4 °F 82% 30.19 in 5.0 mi Calm Calm - N/A   Overcast
3:46 AM 60.8 °F 55.4 °F 82% 30.19 in 5.0 mi Calm Calm - N/A   Overcast
4:10 AM 60.8 °F 55.4 °F 82% 30.19 in 5.0 mi Calm Calm - N/A   Overcast
4:25 AM 60.8 °F 55.4 °F 82% 30.18 in 5.0 mi Calm Calm - N/A   Overcast
4:52 AM 60.8 °F 55.4 °F 82% 30.19 in 5.0 mi Calm Calm - N/A   Overcast
5:13 AM 60.8 °F 55.4 °F 82% 30.19 in 5.0 mi Calm Calm - N/A   Overcast
5:34 AM 60.8 °F 55.4 °F 82% 30.19 in 4.0 mi Calm Calm - N/A   Overcast
5:55 AM 60.8 °F 55.4 °F 82% 30.19 in 4.0 mi Calm Calm - N/A   Overcast
6:16 AM 60.8 °F 55.4 °F 82% 30.20 in 4.0 mi Calm Calm - N/A   Overcast
6:37 AM 60.8 °F 55.4 °F 82% 30.20 in 4.0 mi Calm Calm - N/A   Overcast
6:58 AM 60.8 °F 55.4 °F 82% 30.21 in 5.0 mi Calm Calm - N/A   Overcast
7:22 AM 60.8 °F 55.4 °F 82% 30.21 in 4.0 mi Calm Calm - N/A   Overcast
7:43 AM 60.8 °F 57.2 °F 88% 30.21 in 2.0 mi Calm Calm - N/A Rain Rain
8:25 AM 60.8 °F 57.2 °F 88% 30.20 in 2.5 mi East 4.6 mph - N/A   Overcast
8:46 AM 60.8 °F 57.2 °F 88% 30.20 in 2.5 mi East 3.5 mph - N/A   Overcast
9:07 AM 60.8 °F 57.2 °F 88% 30.20 in 3.0 mi ESE 3.5 mph - N/A   Overcast
9:28 AM 60.8 °F 57.2 °F 88% 30.21 in 3.0 mi Calm Calm - N/A   Overcast
9:49 AM 60.8 °F 57.2 °F 88% 30.21 in 3.0 mi SE 3.5 mph - N/A   Overcast
10:52 AM 62.6 °F 57.2 °F 82% 30.21 in 7.0 mi SE 3.5 mph - N/A   Overcast
11:13 AM 62.6 °F 57.2 °F 82% 30.22 in 10.0 mi SE 4.6 mph - N/A   Overcast
11:37 AM 62.6 °F 57.2 °F 82% 30.21 in 10.0 mi SE 5.8 mph - N/A   Overcast
11:58 AM 62.6 °F 57.2 °F 82% 30.20 in 10.0 mi ESE 3.5 mph - N/A   Overcast
12:19 PM 64.4 °F 57.2 °F 77% 30.19 in 10.0 mi SE 4.6 mph - N/A   Overcast
12:40 PM 64.4 °F 57.2 °F 77% 30.18 in 10.0 mi SE 3.5 mph - N/A   Overcast
1:01 PM 64.4 °F 57.2 °F 77% 30.17 in 10.0 mi SE 4.6 mph - N/A   Overcast
1:19 PM 64.4 °F 55.4 °F 73% 30.16 in 10.0 mi ESE 3.5 mph - N/A   Overcast
1:43 PM 66.2 °F 55.4 °F 68% 30.15 in 10.0 mi SE 4.6 mph - N/A   Overcast
2:04 PM 66.2 °F 55.4 °F 68% 30.15 in 10.0 mi Calm Calm - N/A   Overcast
2:25 PM 66.2 °F 55.4 °F 68% 30.14 in 10.0 mi Calm Calm - N/A   Overcast
2:46 PM 68.0 °F 57.2 °F 68% 30.13 in 10.0 mi SE 5.8 mph - N/A   Overcast
3:07 PM 66.2 °F 59.0 °F 78% 30.13 in 10.0 mi ESE 4.6 mph - N/A   Overcast
3:28 PM 68.0 °F 59.0 °F 73% 30.12 in 10.0 mi SE 5.8 mph - N/A   Overcast
3:52 PM 66.2 °F 59.0 °F 78% 30.12 in 10.0 mi SE 5.8 mph - N/A   Overcast
4:13 PM 66.2 °F 59.0 °F 78% 30.11 in 10.0 mi SE 6.9 mph - N/A   Mostly Cloudy
4:34 PM 68.0 °F 57.2 °F 68% 30.11 in 10.0 mi ESE 6.9 mph - N/A   Mostly Cloudy
4:55 PM 66.2 °F 59.0 °F 78% 30.10 in 10.0 mi ESE 5.8 mph - N/A   Overcast
5:16 PM 66.2 °F 59.0 °F 78% 30.10 in 10.0 mi East 4.6 mph - N/A   Overcast
5:34 PM 64.4 °F 59.0 °F 83% 30.10 in 10.0 mi ESE 3.5 mph - N/A   Overcast
5:58 PM 64.4 °F 59.0 °F 83% 30.10 in 10.0 mi Calm Calm - N/A   Overcast
6:19 PM 64.4 °F 55.4 °F 73% 30.10 in 10.0 mi Calm Calm - N/A   Overcast
6:40 PM 64.4 °F 57.2 °F 77% 30.11 in 10.0 mi Calm Calm - N/A   Overcast
7:01 PM 64.4 °F 57.2 °F 77% 30.11 in 10.0 mi Calm Calm - N/A   Overcast
7:22 PM 64.4 °F 57.2 °F 77% 30.11 in 10.0 mi Calm Calm - N/A   Overcast
7:43 PM 62.6 °F 57.2 °F 82% 30.12 in 10.0 mi Calm Calm - N/A   Overcast
8:07 PM 62.6 °F 57.2 °F 82% 30.12 in 7.0 mi ENE 3.5 mph - N/A   Overcast
8:28 PM 62.6 °F 57.2 °F 82% 30.11 in 10.0 mi East 3.5 mph - N/A   Overcast
8:49 PM 62.6 °F 57.2 °F 82% 30.11 in 10.0 mi East 3.5 mph - N/A   Overcast
9:10 PM 62.6 °F 57.2 °F 82% 30.12 in 10.0 mi East 3.5 mph - N/A   Overcast
9:31 PM 62.6 °F 57.2 °F 82% 30.12 in 10.0 mi Calm Calm - N/A   Overcast
9:52 PM 62.6 °F 57.2 °F 82% 30.11 in 10.0 mi East 4.6 mph - N/A   Overcast
10:13 PM 60.8 °F 55.4 °F 82% 30.11 in 10.0 mi ESE 4.6 mph - N/A   Scattered Clouds
10:34 PM 60.8 °F 55.4 °F 82% 30.10 in 10.0 mi Calm Calm - N/A   Clear
10:55 PM 60.8 °F 55.4 °F 82% 30.10 in 10.0 mi Calm Calm - N/A   Clear
11:16 PM 59.0 °F 55.4 °F 88% 30.10 in 10.0 mi Calm Calm - N/A   Clear
11:37 PM 59.0 °F 55.4 °F 88% 30.09 in 10.0 mi East 3.5 mph - N/A   Clear